Fort Sill, OK

10:58 AM CDT on July 28, 2017 (GMT -0500)
Post Army Air Field

Weather History for KFSI - February, 2013

Change the Weather History Date:

Wednesday, February 6, 2013

  Actual Average Record
Temperature  
Mean Temperature 58 °F -  
Max Temperature 68 °F 47 °F 80 °F (1950)
Min Temperature 48 °F 25 °F 8 °F (2014)
Degree Days  
Heating Degree Days 7    
Growing Degree Days 8 (Base 50)    
Moisture  
Dew Point 55 °F    
Average Humidity 97    
Maximum Humidity 100    
Minimum Humidity 65    
Precipitation  
Precipitation 0.00 in - - ()
Sea Level Pressure  
Sea Level Pressure 29.94 in    
Wind  
Wind Speed 5 mph (SE)    
Max Wind Speed 17 mph    
Max Gust Speed 25 mph    
Visibility 5 miles    
Events Fog    
Averages and records for this station are not official NWS values.
T = Trace of Precipitation, MM = Missing Value Source: NWS Daily Summary

Daily Weather History Graph

Daily Weather History Graph

Search for Another Location

Airport or City:

Trip Planner

Search our weather history database for the weather conditions in past years. The results will help you decide how hot, cold, wet, or windy it might be!

Date:

Astronomy

Feb. 06, 2013 Rise Set
Actual Time 7:27 AM CST 6:08 PM CST
Civil Twilight 7:01 AM CST 6:34 PM CST
Nautical Twilight 6:31 AM CST 7:04 PM CST
Astronomical Twilight 6:01 AM CST 7:33 PM CST
Moon 4:07 AM CST (2/6) 2:32 PM CST (2/6)
Length of Visible Light 11h 33m
Length of Day
10h 40m
Waning Crescent, 17% of the Moon is Illuminated
Feb 6
Waning Crescent
Feb 10
New
Feb 17
First Quarter
Feb 25
Full
Mar 4
Last Quarter

Hourly Weather History & Observations

Time (CST) Temp. Dew Point Humidity Pressure Visibility Wind Dir Wind Speed Gust Speed Precip Events Conditions
12:08 AM 48.2 °F 48.2 °F 100% 30.01 in 8.0 mi Calm Calm - N/A   Overcast
12:10 AM 48.2 °F 48.2 °F 100% 30.01 in 9.0 mi Calm Calm - N/A   Overcast
12:39 AM 48.2 °F 48.2 °F 100% 30.01 in 10.0 mi Calm Calm - N/A   Overcast
12:42 AM 48.2 °F 48.2 °F 100% 30.01 in 10.0 mi Calm Calm - N/A   Overcast
12:55 AM 49.1 °F 49.1 °F 100% 30.01 in 10.0 mi Calm Calm - N/A   Overcast
12:59 AM 50.0 °F 50.0 °F 100% 30.01 in 10.0 mi ENE 3.5 mph - N/A   Overcast
1:10 AM 50.0 °F 50.0 °F 100% 30.00 in 10.0 mi ENE 3.5 mph - N/A   Overcast
1:25 AM 51.8 °F 51.8 °F 100% 29.99 in 8.0 mi ENE 4.6 mph - N/A   Overcast
1:50 AM 50.0 °F 50.0 °F 100% 29.99 in 9.0 mi Calm Calm - N/A   Overcast
1:55 AM 50.2 °F 50.2 °F 100% 29.99 in 8.0 mi Calm Calm - N/A   Overcast
2:00 AM 50.0 °F 50.0 °F 100% 29.99 in 8.0 mi Calm Calm - N/A   Overcast
2:02 AM 50.0 °F 50.0 °F 100% 29.99 in 9.0 mi Calm Calm - N/A   Overcast
2:05 AM 50.0 °F 50.0 °F 100% 29.99 in 9.0 mi Calm Calm - N/A   Overcast
2:31 AM 51.8 °F 51.8 °F 100% 29.98 in 2.5 mi Calm Calm - N/A   Overcast
2:42 AM 51.8 °F 51.8 °F 100% 29.98 in 1.8 mi Calm Calm - N/A   Overcast
2:44 AM 51.8 °F 51.8 °F 100% 29.98 in 1.5 mi Calm Calm - N/A   Overcast
2:47 AM 51.8 °F 51.8 °F 100% 29.98 in 1.2 mi Calm Calm - N/A   Overcast
2:52 AM 51.8 °F 51.8 °F 100% 29.98 in 1.0 mi Calm Calm - N/A   Mist
2:55 AM 51.1 °F 51.1 °F 100% 29.97 in 1.0 mi Calm Calm - N/A   Mist
3:01 AM 51.8 °F 51.8 °F 100% 29.97 in 0.8 mi Calm Calm - N/A   Mist
3:33 AM 51.8 °F 51.8 °F 100% 29.97 in 0.5 mi Calm Calm - N/A Fog Fog
3:43 AM 51.8 °F 51.8 °F 100% 29.97 in 0.8 mi South 3.5 mph - N/A   Mist
3:55 AM 53.2 °F 53.2 °F 100% 29.97 in 0.8 mi SSE 5.8 mph - N/A   Mist
4:01 AM 53.6 °F 53.6 °F 100% 29.97 in 0.8 mi SSE 5.8 mph - N/A   Mist
4:07 AM 53.6 °F 53.6 °F 100% 29.97 in 0.5 mi SSE 4.6 mph - N/A Fog Fog
4:14 AM 53.6 °F 53.6 °F 100% 29.97 in 0.8 mi SSE 5.8 mph - N/A   Mist
4:21 AM 53.6 °F 53.6 °F 100% 29.97 in 1.0 mi South 6.9 mph - N/A   Mist
4:30 AM 53.6 °F 53.6 °F 100% 29.97 in 1.0 mi SSE 4.6 mph - N/A   Mist
4:33 AM 53.6 °F 53.6 °F 100% 29.98 in 1.0 mi SSE 5.8 mph - N/A   Mist
4:34 AM 53.6 °F 53.6 °F 100% 29.98 in 0.8 mi SSE 5.8 mph - N/A   Mist
4:39 AM 53.6 °F 53.6 °F 100% 29.98 in 0.5 mi SSE 5.8 mph - N/A Fog Fog
4:55 AM 53.8 °F 53.8 °F 100% 29.98 in 0.5 mi SSE 6.9 mph - N/A Fog Fog
5:50 AM 53.6 °F 53.6 °F 100% 29.98 in 0.2 mi SSE 4.6 mph - N/A Fog Fog
5:55 AM 53.8 °F 53.8 °F 100% 29.97 in 0.2 mi SE 3.5 mph - N/A Fog Fog
6:55 AM 53.6 °F 53.6 °F 100% 29.97 in 0.2 mi SE 3.5 mph - N/A Fog Fog
7:01 AM 53.6 °F 53.6 °F 100% 29.97 in 0.5 mi ESE 4.6 mph - N/A Fog Fog
7:36 AM 53.6 °F 53.6 °F 100% 29.98 in 0.2 mi SE 6.9 mph - N/A Fog Fog
7:40 AM 53.6 °F 53.6 °F 100% 29.98 in 0.2 mi SE 5.8 mph - N/A Fog Fog
7:47 AM 53.6 °F 53.6 °F 100% 29.98 in 0.5 mi SSE 5.8 mph - N/A Fog Fog
7:55 AM 53.8 °F 53.8 °F 100% 29.98 in 0.5 mi SSE 6.9 mph - N/A Fog Fog
8:03 AM 53.6 °F 53.6 °F 100% 29.98 in 0.8 mi SSE 5.8 mph - N/A   Mist
8:20 AM 53.6 °F 53.6 °F 100% 29.98 in 0.5 mi SE 4.6 mph - N/A Fog Fog
8:55 AM 54.5 °F 54.5 °F 100% 29.98 in 0.5 mi SE 6.9 mph - N/A Fog Fog
8:57 AM 53.6 °F 53.6 °F 100% 29.98 in 0.8 mi SE 6.9 mph - N/A   Mist
9:10 AM 55.4 °F 55.4 °F 100% 29.98 in 0.5 mi SE 8.1 mph - N/A Fog Fog
9:17 AM 55.4 °F 55.4 °F 100% 29.98 in 0.8 mi SE 8.1 mph - N/A   Mist
9:28 AM 55.4 °F 55.4 °F 100% 29.98 in 1.0 mi SE 6.9 mph - N/A   Mist
9:36 AM 55.4 °F 55.4 °F 100% 29.97 in 0.8 mi SE 9.2 mph - N/A   Mist
9:40 AM 55.4 °F 55.4 °F 100% 29.98 in 1.0 mi SE 6.9 mph - N/A   Mist
9:51 AM 55.4 °F 55.4 °F 100% 29.98 in 1.2 mi SSE 6.9 mph - N/A   Overcast
9:55 AM 54.9 °F 54.9 °F 100% 29.98 in 1.2 mi SE 6.9 mph - N/A   Overcast
10:08 AM 55.4 °F 55.4 °F 100% 29.98 in 1.5 mi SE 6.9 mph - N/A   Overcast
10:12 AM 55.4 °F 55.4 °F 100% 29.98 in 1.8 mi SE 5.8 mph - N/A   Overcast
10:17 AM 55.4 °F 55.4 °F 100% 29.98 in 2.0 mi SE 5.8 mph - N/A   Overcast
10:26 AM 55.4 °F 55.4 °F 100% 29.98 in 3.0 mi SE 6.9 mph - N/A   Overcast
10:45 AM 55.4 °F 55.4 °F 100% 29.98 in 2.5 mi SE 8.1 mph - N/A   Overcast
10:50 AM 55.4 °F 55.4 °F 100% 29.97 in 1.8 mi SE 9.2 mph - N/A   Overcast
10:53 AM 55.4 °F 55.4 °F 100% 29.97 in 1.5 mi SE 8.1 mph - N/A   Overcast
10:55 AM 55.9 °F 55.9 °F 100% 29.97 in 1.5 mi SE 9.2 mph - N/A   Overcast
11:00 AM 55.4 °F 55.4 °F 100% 29.97 in 1.2 mi SE 6.9 mph - N/A   Overcast
11:11 AM 55.4 °F 55.4 °F 100% 29.96 in 1.0 mi SE 8.1 mph - N/A   Overcast
11:13 AM 57.2 °F 57.2 °F 100% 29.96 in 1.2 mi SE 8.1 mph - N/A   Overcast
11:19 AM 57.2 °F 57.2 °F 100% 29.96 in 1.5 mi SE 9.2 mph - N/A   Overcast
11:22 AM 57.2 °F 57.2 °F 100% 29.96 in 1.8 mi SSE 9.2 mph - N/A   Overcast
11:24 AM 57.2 °F 57.2 °F 100% 29.96 in 2.0 mi SSE 9.2 mph - N/A   Overcast
11:30 AM 57.2 °F 57.2 °F 100% 29.96 in 3.0 mi SSE 10.4 mph - N/A   Overcast
11:55 AM 57.4 °F 57.4 °F 100% 29.94 in 6.0 mi SSE 10.4 mph - N/A   Overcast
12:05 PM 57.2 °F 57.2 °F 100% 29.93 in 7.0 mi SSE 11.5 mph - N/A   Overcast
12:25 PM 57.2 °F 57.2 °F 100% 29.93 in 7.0 mi SSE 8.1 mph - N/A   Overcast
12:37 PM 57.2 °F 57.2 °F 100% 29.92 in 7.0 mi SSE 11.5 mph - N/A   Overcast
12:46 PM 57.2 °F 57.2 °F 100% 29.91 in 7.0 mi SSE 12.7 mph - N/A   Overcast
12:55 PM 58.3 °F 58.3 °F 100% 29.91 in 8.0 mi SSE 11.5 mph - N/A   Overcast
1:01 PM 59.0 °F 59.0 °F 100% 29.91 in 8.0 mi SSE 11.5 mph - N/A   Overcast
1:32 PM 59.0 °F 59.0 °F 100% 29.88 in 10.0 mi SSE 12.7 mph - N/A   Overcast
1:41 PM 60.8 °F 60.8 °F 100% 29.87 in 10.0 mi SSE 12.7 mph - N/A   Overcast
1:42 PM 60.8 °F 60.8 °F 100% 29.87 in 10.0 mi SSE 12.7 mph - N/A   Overcast
1:44 PM 60.8 °F 60.8 °F 100% 29.87 in 10.0 mi SSE 11.5 mph - N/A   Mostly Cloudy
1:46 PM 62.6 °F 59.0 °F 88% 29.86 in 10.0 mi SE 11.5 mph - N/A   Overcast
1:49 PM 62.6 °F 59.0 °F 88% 29.86 in 10.0 mi SE 11.5 mph - N/A   Overcast
1:50 PM 62.6 °F 59.0 °F 88% 29.86 in 10.0 mi SE 11.5 mph - N/A   Overcast
1:51 PM 62.6 °F 59.0 °F 88% 29.86 in 10.0 mi SE 11.5 mph - N/A   Overcast
1:55 PM 62.2 °F 57.7 °F 85% 29.86 in 10.0 mi SE 12.7 mph - N/A   Overcast
2:18 PM 64.4 °F 57.2 °F 77% 29.85 in 10.0 mi SSE 13.8 mph - N/A   Overcast
2:30 PM 64.4 °F 57.2 °F 77% 29.84 in 10.0 mi SSE 13.8 mph - N/A   Overcast
2:31 PM 64.4 °F 57.2 °F 77% 29.84 in 10.0 mi SSE 15.0 mph - N/A   Overcast
2:35 PM 64.4 °F 57.2 °F 77% 29.84 in 10.0 mi SSE 9.2 mph - N/A   Overcast
2:55 PM 64.6 °F 57.7 °F 78% 29.83 in 10.0 mi SE 12.7 mph - N/A   Overcast
3:55 PM 68.0 °F 57.6 °F 69% 29.79 in 10.0 mi SE 13.8 mph - N/A   Partly Cloudy
4:55 PM 68.2 °F 55.9 °F 65% 29.78 in 10.0 mi SE 15.0 mph - N/A   Mostly Cloudy
5:55 PM 66.7 °F 55.0 °F 66% 29.78 in 10.0 mi SE 11.5 mph - N/A   Mostly Cloudy
6:52 PM 59.0 °F 57.2 °F 94% 29.80 in 8.0 mi ESE 16.1 mph - N/A   Mostly Cloudy
6:55 PM 59.7 °F 57.7 °F 93% 29.80 in 8.0 mi ESE 17.3 mph - N/A   Mostly Cloudy
7:55 PM 58.3 °F 56.5 °F 94% 29.82 in 10.0 mi SE 15.0 mph - N/A   Overcast
8:55 PM 58.5 °F 56.3 °F 93% 29.83 in 10.0 mi SE 17.3 mph 25.3 mph N/A   Overcast
9:55 PM 58.3 °F 56.3 °F 93% 29.84 in 10.0 mi SSE 16.1 mph - N/A   Overcast
11:55 PM 58.8 °F 56.5 °F 92% 29.83 in 10.0 mi SSE 15.0 mph - N/A   Overcast